Weather History for New York Downtown Manhattan/w, NY

Change the Weather History Date:

Tuesday, February 18, 2014

  Actual Average (KNYC) Record (KNYC)
Temperature  
Mean Temperature 36 °F 36 °F  
Max Temperature 41 °F 42 °F 68 °F (1981)
Min Temperature 30 °F 29 °F 0 °F (1979)
Degree Days  
Heating Degree Days 30 29  
Month to date heating degree days 551  
Since 1 July heating degree days 3240  
Cooling Degree Days 0 0  
Month to date cooling degree days 0  
Year to date cooling degree days 0  
Moisture  
Dew Point 27 °F    
Average Humidity 75    
Maximum Humidity 100    
Minimum Humidity 51    
Precipitation  
Precipitation 0.02 in 0.11 in 1.50 in (1887)
Month to date precipitation 1.94  
Year to date precipitation 5.59  
Snow  
Snow 0.00 in 0.30 in 3.50 in (1928)
Month to date snowfall 6.0  
Since 1 July snowfall 18.1  
Snow Depth -    
Sea Level Pressure  
Sea Level Pressure 30.11 in    
Wind  
Wind Speed 6 mph (NNW)    
Max Wind Speed 16 mph    
Max Gust Speed 28 mph    
Visibility 8 miles    
Events      
T = Trace of Precipitation, MM = Missing Value Source: NWS Daily Summary

Daily Weather History Graph

Daily Weather History Graph

Search for Another Location

Airport:

Trip Planner

Search our weather history database for the weather conditions in past years. The results will help you decide how hot, cold, wet, or windy it might be!

Date:

Astronomy

Feb. 18, 2014 Rise Set
Actual Time 6:45 AM EST 5:34 PM EST
Civil Twilight 6:18 AM EST 6:02 PM EST
Nautical Twilight 5:46 AM EST 6:34 PM EST
Astronomical Twilight 5:14 AM EST 7:06 PM EST
Moon 9:26 PM EST (2/18) 8:15 AM EST (2/18)
Length of Visible Light 11h 44m
Length of Day
10h 48m
Waning Gibbous, 87% of the Moon is Illuminated
Feb 18
Waning Gibbous
Feb 22
Last Quarter
Mar 1
New
Mar 8
First Quarter
Mar 16
Full

Hourly Weather History & Observations

Time (EST) Temp. Windchill Dew Point Humidity Pressure Visibility Wind Dir Wind Speed Gust Speed Precip Events Conditions
12:15 AM 30.2 °F - 15.8 °F 55% 30.34 in 10.0 mi Calm Calm - N/A   Clear
12:35 AM 30.2 °F 26.7 °F 14.0 °F 51% 30.34 in 10.0 mi South 3.5 mph - N/A   Clear
12:55 AM 30.2 °F 26.7 °F 15.8 °F 55% 30.34 in 10.0 mi SSE 3.5 mph - N/A   Mostly Cloudy
1:15 AM 30.2 °F 24.3 °F 17.6 °F 60% 30.30 in 10.0 mi East 5.8 mph - N/A   Scattered Clouds
1:35 AM 30.2 °F 18.9 °F 17.6 °F 60% 30.23 in 10.0 mi ENE 16.1 mph - N/A   Mostly Cloudy
1:55 AM 30.2 °F 26.7 °F 15.8 °F 55% 30.29 in 10.0 mi NE 3.5 mph - N/A   Overcast
2:15 AM 30.2 °F 24.3 °F 15.8 °F 55% 30.30 in 10.0 mi ESE 5.8 mph - N/A   Mostly Cloudy
2:35 AM 30.2 °F 26.7 °F 17.6 °F 60% 30.29 in 10.0 mi East 3.5 mph - N/A   Partly Cloudy
2:55 AM 30.2 °F 24.3 °F 17.6 °F 60% 30.28 in 10.0 mi ESE 5.8 mph - N/A   Clear
3:15 AM 30.2 °F 22.6 °F 17.6 °F 60% 30.25 in 10.0 mi NE 8.1 mph - N/A   Clear
3:35 AM 30.2 °F 24.3 °F 17.6 °F 60% 30.25 in 10.0 mi NE 5.8 mph - N/A   Scattered Clouds
3:55 AM 30.2 °F 21.9 °F 19.4 °F 64% 30.23 in 10.0 mi NE 9.2 mph - N/A   Overcast
4:15 AM 30.2 °F 24.3 °F 19.4 °F 64% 30.23 in 10.0 mi NNE 5.8 mph - N/A   Overcast
4:35 AM 30.2 °F 24.3 °F 19.4 °F 64% 30.22 in 10.0 mi NNE 5.8 mph - N/A   Overcast
4:55 AM 30.2 °F 21.9 °F 21.2 °F 69% 30.20 in 10.0 mi NNE 9.2 mph - N/A   Overcast
5:15 AM 30.2 °F 22.6 °F 24.8 °F 80% 30.19 in 2.0 mi NNE 8.1 mph - N/A   Overcast
5:35 AM 30.2 °F 24.3 °F 26.6 °F 86% 30.19 in 1.8 mi NNE 5.8 mph - N/A   Overcast
5:55 AM 30.2 °F 26.7 °F 28.4 °F 93% 30.18 in 2.0 mi NE 3.5 mph - N/A   Overcast
6:15 AM 32.0 °F 27.5 °F 30.2 °F 93% 30.17 in 1.0 mi NNE 4.6 mph - N/A   Overcast
6:35 AM 32.0 °F 26.4 °F 30.2 °F 93% 30.17 in 1.0 mi NNE 5.8 mph - N/A   Overcast
6:55 AM 30.2 °F 24.3 °F 30.2 °F 100% 30.16 in 2.5 mi NNE 5.8 mph - N/A   Overcast
7:15 AM 30.2 °F 23.4 °F 30.2 °F 100% 30.16 in 0.8 mi NE 6.9 mph - N/A   Overcast
7:35 AM 32.0 °F 25.6 °F 30.2 °F 93% 30.15 in 0.8 mi NE 6.9 mph - N/A   Overcast
7:55 AM 32.0 °F 23.6 °F 30.2 °F 93% 30.14 in 1.2 mi NE 10.4 mph - N/A   Overcast
8:15 AM 30.2 °F 21.9 °F 30.2 °F 100% 30.12 in 2.5 mi NE 9.2 mph - N/A   Overcast
8:35 AM 32.0 °F 24.2 °F 30.2 °F 93% 30.11 in 2.0 mi NE 9.2 mph - N/A   Overcast
8:55 AM 32.0 °F 24.8 °F 30.2 °F 93% 30.10 in 3.0 mi NE 8.1 mph - N/A   Overcast
9:15 AM 32.0 °F 24.8 °F 30.2 °F 93% 30.08 in 4.0 mi NE 8.1 mph - N/A   Overcast
9:35 AM 33.8 °F 25.8 °F 30.2 °F 87% 30.06 in 5.0 mi NNE 10.4 mph - 0.01 in   Overcast
9:55 AM 33.8 °F 25.3 °F 30.2 °F 87% 30.04 in 4.0 mi NNE 11.5 mph - 0.01 in   Overcast
10:15 AM 33.8 °F 25.8 °F 32.0 °F 93% 30.04 in 5.0 mi NE 10.4 mph - 0.01 in   Overcast
10:35 AM 35.6 °F 29.9 °F 33.8 °F 93% 30.04 in 5.0 mi NE 6.9 mph - 0.01 in   Overcast
10:55 AM 35.6 °F 29.2 °F 33.8 °F 93% 30.03 in 5.0 mi NE 8.1 mph - 0.01 in   Overcast
11:15 AM 35.6 °F 29.9 °F 33.8 °F 93% 30.03 in 5.0 mi East 6.9 mph - N/A   Overcast
11:35 AM 35.6 °F 31.7 °F 33.8 °F 93% 30.02 in 5.0 mi ENE 4.6 mph - N/A   Overcast
11:55 AM 35.6 °F 32.8 °F 33.8 °F 93% 30.01 in 7.0 mi WNW 3.5 mph - N/A   Overcast
12:15 PM 35.6 °F - 33.8 °F 93% 30.00 in 5.0 mi Calm Calm - N/A   Overcast
12:35 PM 37.4 °F 34.9 °F 35.6 °F 93% 29.99 in 5.0 mi ENE 3.5 mph - N/A   Mostly Cloudy
12:55 PM 39.2 °F 37.0 °F 35.6 °F 87% 29.98 in 5.0 mi NE 3.5 mph - N/A   Overcast
1:15 PM 39.2 °F 37.0 °F 35.6 °F 87% 29.97 in 5.0 mi WSW 3.5 mph - N/A   Mostly Cloudy
1:35 PM 39.2 °F 35.0 °F 35.6 °F 87% 29.97 in 5.0 mi WSW 5.8 mph - N/A   Partly Cloudy
1:55 PM 39.2 °F 33.6 °F 33.8 °F 81% 29.98 in 5.0 mi West 8.1 mph - N/A   Scattered Clouds
2:15 PM 39.2 °F 33.0 °F 33.8 °F 81% 29.97 in 6.0 mi West 9.2 mph - N/A   Scattered Clouds
2:35 PM 41.0 °F 34.3 °F 33.8 °F 76% 29.97 in 9.0 mi West 11.5 mph - N/A   Mostly Cloudy
2:55 PM 39.2 °F 31.2 °F 32.0 °F 75% 29.98 in 10.0 mi West 13.8 mph 21.9 mph N/A   Mostly Cloudy
3:15 PM 41.0 °F 33.9 °F 32.0 °F 70% 29.98 in 10.0 mi West 12.7 mph 23.0 mph N/A   Scattered Clouds
3:35 PM 41.0 °F 33.5 °F 30.2 °F 65% 29.99 in 10.0 mi West 13.8 mph - N/A   Scattered Clouds
3:55 PM 41.0 °F 34.7 °F 30.2 °F 65% 29.99 in 10.0 mi West 10.4 mph 27.6 mph N/A   Mostly Cloudy
4:15 PM 39.2 °F 30.5 °F 28.4 °F 65% 29.99 in 10.0 mi West 16.1 mph 25.3 mph N/A   Mostly Cloudy
4:35 PM 41.0 °F 33.9 °F 28.4 °F 61% 30.00 in 10.0 mi West 12.7 mph 23.0 mph N/A   Partly Cloudy
4:55 PM 39.2 °F 31.2 °F 28.4 °F 65% 30.01 in 10.0 mi West 13.8 mph 24.2 mph N/A   Mostly Cloudy
5:15 PM 39.2 °F 35.0 °F 28.4 °F 65% 30.02 in 10.0 mi West 5.8 mph 19.6 mph N/A   Mostly Cloudy
5:35 PM 37.4 °F 32.1 °F 28.4 °F 70% 30.02 in 10.0 mi West 6.9 mph 21.9 mph N/A   Partly Cloudy
5:55 PM 37.4 °F 32.8 °F 28.4 °F 70% 30.04 in 10.0 mi WNW 5.8 mph - N/A   Clear
6:15 PM 37.4 °F - 28.4 °F 70% 30.05 in 10.0 mi Calm Calm - N/A   Clear
6:35 PM 37.4 °F 30.3 °F 28.4 °F 70% 30.07 in 10.0 mi West 10.4 mph - N/A   Clear
6:55 PM 37.4 °F 30.3 °F 28.4 °F 70% 30.09 in 10.0 mi West 10.4 mph 16.1 mph N/A   Clear
7:15 PM 37.4 °F 32.1 °F 28.4 °F 70% 30.08 in 10.0 mi West 6.9 mph 16.1 mph N/A   Clear
7:35 PM 37.4 °F 32.1 °F 28.4 °F 70% 30.08 in 10.0 mi West 6.9 mph - N/A   Clear
7:55 PM 35.6 °F 28.6 °F 28.4 °F 75% 30.08 in 10.0 mi West 9.2 mph - N/A   Clear
8:15 PM 37.4 °F 32.8 °F 28.4 °F 70% 30.10 in 10.0 mi West 5.8 mph - N/A   Clear
8:35 PM 35.6 °F 28.0 °F 26.6 °F 70% 30.11 in 10.0 mi West 10.4 mph - N/A   Clear
8:55 PM 35.6 °F 29.9 °F 26.6 °F 70% 30.10 in 10.0 mi West 6.9 mph - N/A   Clear
9:15 PM 35.6 °F 30.7 °F 26.6 °F 70% 30.10 in 10.0 mi West 5.8 mph - N/A   Clear
9:35 PM 35.6 °F 29.9 °F 24.8 °F 65% 30.10 in 10.0 mi West 6.9 mph - N/A   Clear
9:55 PM 35.6 °F 29.9 °F 24.8 °F 65% 30.11 in 10.0 mi West 6.9 mph - N/A   Clear
10:15 PM 35.6 °F 30.7 °F 24.8 °F 65% 30.12 in 10.0 mi West 5.8 mph - N/A   Clear
10:35 PM 35.6 °F - 24.8 °F 65% 30.10 in 10.0 mi Calm Calm - N/A   Clear
10:55 PM 35.6 °F 31.7 °F 24.8 °F 65% 30.09 in 10.0 mi West 4.6 mph - N/A   Clear
11:15 PM 35.6 °F 29.9 °F 24.8 °F 65% 30.10 in 10.0 mi WSW 6.9 mph - N/A   Clear
11:35 PM 35.6 °F 30.7 °F 24.8 °F 65% 30.10 in 10.0 mi WSW 5.8 mph - N/A   Clear
11:55 PM 33.8 °F 28.6 °F 26.6 °F 75% 30.11 in 10.0 mi SSW 5.8 mph - N/A   Clear